Temperature
13 13 13 13 12 12 12 12 12 12 12 12 12 12 12 12 12 12 12 12 12 12 12 12 12 12 12 12 12 12 12 12 12 12 12 12 12 12
13 13 12 12 12 12 12 12 12 12 12 12 12 12 12 12 12 12 12 11 11 12 12 12 12 12 12 12 11 11 11 11 11 11 11 11 11 11
12 12 12 12 12 12 12 12 12 11 11 11 11 12 11 11 11 11 11 11 11 11 11 11 11 11 11 11 11 11 11 11 11 11 11 11 11 11
12 12 12 12 11 11 11 11 11 11 11 11 11 11 11 11 11 11 11 11 11 11 11 11 11 11 11 11 11 11 11 11 11 11 11 11 11 11
12 12 11 11 11 11 11 11 11 11 10 11 10 10 10 11 11 11 11 11 11 11 11 11 11 11 11 11 11 11 11 11 11 11 11 11 11 11
12 11 11 11 11 11 11 11 10 10 10 10 10 10 10 10 10 10 10 10 10 10 10 10 10 10 10 10 11 10 10 10 10 10 10 11 10 10
11 11 11 11 11 11 10 10 10 10 10 10 10 10 10 10 10 10 10 10 10 10 10 10 10 10 10 10 10 10 10 10 10 10 10 10 10 10
11 11 11 11 10 10 10 10 10 10 9 9 9 9 9 9 9 9 9 9 9 10 10 10 10 10 10 10 10 10 10 10 10 10 10 10 10 10
10 10 10 10 10 10 10 10 9 9 9 9 9 9 9 9 9 9 9 9 9 9 9 9 9 10 10 10 10 10 9 9 9 9 9 10 10 10
10 10 10 10 10 10 10 9 9 9 9 9 9 9 9 9 9 9 9 9 9 9 9 9 9 9 9 9 9 9 9 9 9 9 9 9 9 9
10 10 10 9 9 9 9 9 9 9 9 9 9 9 8 8 8 8 8 8 9 9 8 8 9 9 9 9 9 9 9 9 9 9 9 9 9 9
9 9 9 9 9 9 9 9 9 9 9 9 8 8 8 8 8 8 8 8 8 8 8 8 8 8 8 8 8 8 8 8 8 8 8 8 8 8
9 9 9 9 9 9 8 8 8 8 8 8 8 8 8 8 8 8 8 8 8 8 8 7 8 7 7 7 8 8 8 8 8 8 8 8 8 8
9 9 8 8 8 8 8 8 8 8 7 7 7 8 8 8 8 8 8 8 7 7 7 7 7 7 7 7 7 7 8 7 7 8 8 8 8 8
8 8 8 8 8 8 8 7 7 7 7 7 7 7 7 7 7 7 7 7 7 7 7 7 7 7 7 7 7 7 7 7 7 7 7 7 7 7
7 7 7 7 7 7 7 7 7 7 7 6 6 6 6 7 7 7 7 7 7 7 7 7 7 6 6 6 7 7 7 7 7 7 7 7 7 7
7 7 7 7 7 7 6 6 6 6 6 6 6 6 6 6 6 6 6 6 6 6 6 7 6 6 6 6 6 6 6 6 6 6 6 6 7 7
6 6 6 6 6 6 6 6 6 5 6 6 5 5 5 5 5 5 5 5 5 6 6 6 5 6 6 6 6 5 6 6 6 6 6 6 6 6
6 5 5 5 5 5 5 5 5 5 5 5 5 5 5 5 5 5 5 5 5 5 5 5 5 5 5 5 5 5 5 5 5 5 5 5 6 6
5 5 5 5 5 4 4 4 4 4 4 4 4 4 4 4 4 4 4 4 4 4 5 5 5 4 4 4 4 5 5 4 5 5 5 5 5 5
4 4 4 4 4 4 4 3 3 3 3 3 4 4 4 4 4 4 4 4 4 4 4 4 4 4 4 4 4 4 4 4 4 4 4 4 4 5
4 4 4 4 4 3 3 3 3 3 3 3 3 3 3 3 3 3 3 3 3 3 4 4 4 4 4 3 3 4 4 4 4 4 4 4 4 4
3 3 3 3 3 3 3 3 3 3 3 3 3 3 3 3 3 3 3 3 3 3 3 3 3 3 3 3 3 3 3 3 3 3 4 3 3 3
Wind_Speed
1 1 1 0 1 0 1 1 1 1 2 2 1 1 3 4 5 4 4 4 4 5 5 4 4 4 4 5 5 5 5 5 6 6 6 6 6 6
1 1 1 1 1 1 1 1 0 1 2 2 2 1 1 1 2 2 3 4 4 5 6 6 6 6 6 6 5 5 6 6 5 6 6 7 6 6
1 1 1 1 1 1 1 1 1 0 1 3 2 1 1 1 0 1 2 3 4 6 7 7 7 7 7 7 7 6 6 6 6 6 7 7 6 6
1 1 1 1 1 0 1 1 1 1 1 2 2 2 1 1 1 2 2 3 4 6 7 6 7 8 8 8 8 8 7 7 6 6 7 7 7 7
0 1 1 2 1 1 1 1 1 2 1 1 2 2 2 2 1 2 3 2 3 4 6 7 8 8 9 8 8 8 8 8 7 7 7 7 8 8
1 1 1 2 1 1 1 1 1 1 2 1 2 2 2 2 1 1 3 3 4 3 3 5 7 8 8 9 9 8 8 9 9 8 8 8 8 9
1 1 2 3 2 1 1 1 1 1 1 1 2 2 2 2 2 2 3 3 4 2 2 3 3 4 6 8 9 9 9 9 9 9 9 9 9 9
1 1 2 3 2 2 1 1 0 1 1 1 2 2 2 2 2 2 2 3 3 3 2 3 2 3 4 5 7 8 8 9 9 9 9 9 10 10
1 1 1 1 2 1 1 1 1 2 2 2 2 3 2 2 1 2 3 3 4 4 2 4 3 3 4 6 7 6 7 8 8 9 9 9 9 10
1 2 2 2 1 1 1 2 2 2 3 3 2 2 2 2 2 3 4 4 4 3 1 3 3 3 4 4 7 6 7 7 8 8 9 9 9 10
1 2 3 2 2 3 1 1 2 2 3 3 3 3 4 4 3 1 2 2 3 3 1 1 3 3 3 3 5 7 7 8 8 9 9 9 10 9
1 2 3 3 2 2 1 1 2 2 3 3 3 4 3 4 4 2 2 2 2 3 3 1 2 2 3 3 2 4 6 7 8 9 10 10 9 6
0 1 1 2 2 2 2 1 3 3 3 2 2 2 2 2 2 2 2 2 2 3 3 1 2 2 2 3 3 3 3 4 5 7 9 10 9 7
0 1 1 2 2 2 2 2 4 3 1 1 2 1 2 2 2 2 3 3 4 5 5 3 2 3 3 3 4 3 3 3 3 3 5 7 8 10
1 1 1 1 1 2 3 3 3 2 1 1 2 2 2 3 2 3 4 4 5 6 6 5 3 2 2 3 4 4 4 4 3 3 3 4 4 4
1 1 1 1 1 2 3 2 1 1 1 1 2 3 2 2 2 2 3 3 3 4 5 5 4 3 3 4 3 4 3 3 3 4 4 4 4 4
0 0 1 1 1 1 1 1 1 1 1 2 2 3 2 3 3 2 2 3 3 4 4 3 4 3 3 3 4 4 4 4 4 4 4 4 4 4
1 0 1 0 1 1 1 1 1 1 1 2 2 3 3 3 3 3 3 3 4 4 3 3 3 3 3 3 4 4 4 4 4 4 3 4 5 4
1 1 1 1 1 1 1 1 1 2 2 2 2 3 3 3 3 3 3 3 4 4 4 3 2 2 4 6 5 4 4 4 4 4 4 4 6 5
1 1 2 1 1 1 1 1 1 2 2 2 2 3 3 3 3 3 3 4 4 4 4 3 3 3 5 6 5 5 6 4 4 5 5 4 4 5
1 1 1 1 1 1 1 1 1 2 2 2 2 3 3 3 3 4 4 5 4 4 5 4 5 7 5 3 4 4 4 6 6 4 3 3 4 3
2 2 1 1 1 1 1 1 1 2 2 2 3 3 3 3 4 4 4 4 4 4 5 5 5 4 2 4 5 6 5 5 6 6 5 5 3 3
2 2 2 1 1 1 1 1 2 2 2 2 3 3 3 4 4 4 4 4 4 5 5 5 4 3 4 4 5 5 5 5 3 3 4 8 8 9
Wind_Direction
90 108 107 117 60 64 115 140 148 296 292 289 343 61 126 133 158 171 184 208 214 220 230 239 249 262 276 286 294 294 290 289 293 298 304 308 314 314
101 94 50 37 46 27 342 312 222 204 260 293 297 314 80 114 175 200 207 216 219 234 242 243 246 256 264 272 276 282 284 283 283 287 295 301 304 309
195 137 133 104 75 9 354 350 339 338 261 291 304 329 10 54 39 257 223 204 217 238 247 248 247 253 261 263 263 267 272 272 273 281 287 290 292 295
188 128 112 99 104 41 357 316 304 292 226 282 305 329 323 266 223 248 256 240 224 242 243 243 253 257 262 263 260 259 261 263 269 276 282 283 283 285
157 111 85 92 83 62 28 347 313 319 322 284 295 313 318 327 333 301 308 297 286 263 240 244 252 259 264 263 261 260 258 261 264 268 273 277 278 279
64 87 80 79 75 66 27 7 355 349 340 327 310 307 306 320 359 334 318 308 302 298 268 262 257 260 264 267 266 266 264 263 264 265 268 271 273 274
84 90 98 88 72 87 72 19 15 349 317 305 299 309 312 338 326 308 313 309 295 286 298 273 255 252 265 266 263 266 268 266 265 265 263 264 267 270
166 140 127 107 87 89 63 35 206 226 261 268 277 283 279 272 297 311 309 323 301 294 294 280 267 257 256 255 260 263 266 267 266 265 264 264 264 265
186 155 123 84 93 89 354 336 295 261 247 234 258 264 264 262 260 282 283 282 271 274 285 271 269 264 263 267 260 259 260 266 269 266 263 266 269 269
212 159 144 119 63 44 347 291 271 272 251 242 237 257 267 273 254 253 262 280 281 284 278 262 278 281 282 264 251 249 252 260 267 270 269 265 267 267
22 67 89 101 60 42 28 307 296 290 283 278 261 264 276 289 307 319 314 320 302 294 301 258 277 292 280 262 261 256 258 266 270 269 271 274 272 268
66 83 79 74 50 35 13 300 289 287 293 298 293 286 284 294 301 270 244 270 289 290 293 280 292 322 303 286 293 281 271 270 272 269 271 274 272 266
81 89 77 58 35 353 324 269 273 289 281 276 273 275 283 281 274 276 260 240 257 269 282 281 277 286 267 288 296 286 280 290 281 275 270 270 264 256
329 77 80 53 6 334 312 301 312 315 302 304 300 288 292 292 284 275 277 277 264 267 283 279 259 257 268 287 291 298 294 291 287 284 280 277 269 261
21 56 61 14 345 317 306 313 332 323 309 307 288 279 279 285 298 302 292 283 280 281 291 291 278 275 264 271 284 296 300 289 275 278 278 273 264 272
23 12 345 313 303 295 308 307 287 298 300 276 284 287 294 292 285 282 289 297 296 289 293 297 286 261 266 276 279 286 284 281 291 288 286 281 278 260
131 35 3 1 349 338 343 332 327 337 330 316 310 311 309 302 295 291 289 294 285 288 294 296 299 281 261 263 282 281 287 293 290 291 289 281 273 267
112 174 263 260 248 280 298 311 311 303 296 296 298 299 296 293 298 301 295 283 281 281 283 289 302 315 319 300 252 269 279 283 288 288 289 282 280 279
132 232 237 239 240 251 278 285 291 297 305 301 296 296 298 298 299 297 297 294 288 284 283 281 278 274 291 298 284 257 268 285 291 286 278 277 278 281
207 230 241 249 251 264 276 289 301 305 302 298 296 300 299 294 296 299 294 293 294 295 292 289 272 262 262 271 281 285 271 267 281 281 282 286 287 287
221 240 245 253 263 260 270 284 297 297 307 308 301 302 302 298 293 292 292 299 296 295 293 284 274 276 270 270 285 290 288 281 278 279 284 296 302 295
217 226 240 254 266 265 262 277 291 291 299 301 300 301 300 298 292 288 290 296 291 288 289 290 296 291 273 271 276 285 296 307 303 298 296 291 279 266
214 221 223 237 253 264 264 269 275 285 294 298 298 298 300 297 293 290 287 281 286 290 294 296 299 291 276 273 278 286 291 297 307 316 316 317 303 294
Height
1526 1526 1526 1526 1527 1527 1527 1528 1528 1527 1527 1527 1527 1527 1526 1526 1526 1526 1525 1525 1524 1524 1523 1523 1522 1521 1521 1520 1520 1519 1519 1518 1518 1518 1518 1517 1516 1516
1524 1525 1525 1525 1525 1525 1526 1526 1526 1526 1526 1525 1525 1525 1525 1524 1524 1524 1523 1523 1522 1522 1521 1521 1520 1519 1519 1518 1517 1516 1516 1515 1515 1515 1515 1514 1514 1514
1523 1523 1523 1523 1523 1523 1524 1524 1524 1524 1523 1523 1523 1523 1523 1522 1522 1521 1521 1520 1520 1519 1519 1518 1517 1517 1516 1516 1515 1514 1513 1513 1512 1512 1512 1512 1512 1511
1521 1521 1521 1521 1521 1521 1521 1522 1522 1522 1522 1521 1521 1521 1520 1520 1519 1519 1518 1518 1517 1517 1516 1516 1515 1514 1513 1513 1512 1512 1511 1510 1510 1509 1509 1509 1509 1508
1519 1519 1519 1519 1519 1519 1519 1519 1519 1520 1520 1519 1518 1518 1518 1518 1517 1516 1516 1515 1515 1514 1513 1513 1512 1511 1511 1510 1509 1509 1508 1508 1507 1506 1506 1505 1505 1505
1517 1517 1517 1517 1517 1517 1517 1517 1517 1517 1517 1517 1516 1516 1515 1515 1514 1513 1512 1512 1512 1511 1511 1510 1509 1509 1508 1507 1506 1505 1505 1504 1504 1503 1503 1502 1502 1501
1515 1515 1515 1515 1515 1515 1515 1515 1515 1514 1514 1514 1514 1513 1513 1512 1511 1511 1510 1510 1509 1509 1508 1507 1506 1505 1504 1504 1503 1502 1501 1501 1500 1500 1499 1498 1498 1497
1512 1513 1513 1513 1513 1512 1513 1512 1512 1512 1512 1511 1511 1511 1510 1510 1509 1509 1508 1507 1505 1506 1505 1504 1503 1502 1501 1501 1500 1499 1498 1497 1496 1496 1495 1494 1494 1493
1510 1510 1510 1510 1510 1510 1510 1510 1509 1509 1509 1509 1509 1508 1508 1507 1507 1506 1505 1505 1504 1503 1502 1500 1500 1498 1498 1497 1497 1496 1495 1494 1493 1492 1491 1490 1490 1489
1508 1508 1507 1507 1507 1507 1507 1506 1506 1506 1506 1506 1506 1505 1506 1505 1505 1504 1503 1502 1502 1501 1500 1498 1496 1495 1495 1494 1493 1493 1492 1490 1489 1488 1487 1487 1486 1484
1505 1505 1504 1504 1504 1504 1504 1503 1503 1503 1503 1503 1503 1503 1502 1502 1502 1502 1500 1499 1498 1497 1497 1495 1494 1492 1491 1490 1490 1489 1488 1487 1486 1484 1483 1482 1481 1480
1501 1502 1502 1502 1502 1501 1501 1500 1500 1500 1500 1499 1499 1499 1499 1499 1499 1498 1498 1496 1495 1494 1493 1493 1491 1490 1487 1487 1486 1485 1484 1483 1482 1481 1480 1479 1477 1476
1498 1498 1498 1498 1498 1498 1498 1497 1497 1497 1496 1496 1496 1496 1495 1495 1495 1495 1494 1494 1493 1491 1491 1490 1488 1487 1486 1483 1482 1481 1480 1479 1477 1476 1475 1474 1473 1472
1494 1495 1495 1495 1495 1495 1495 1494 1494 1494 1493 1493 1492 1492 1492 1491 1491 1491 1491 1490 1490 1489 1488 1487 1485 1484 1482 1480 1478 1477 1476 1475 1473 1472 1471 1470 1469 1468
1491 1492 1492 1492 1492 1492 1492 1492 1492 1491 1491 1490 1489 1489 1488 1488 1488 1487 1487 1486 1485 1485 1484 1483 1482 1480 1479 1477 1475 1473 1471 1470 1469 1468 1467 1465 1464 1463
1487 1488 1488 1489 1489 1489 1489 1488 1488 1488 1488 1487 1487 1486 1486 1485 1484 1483 1483 1482 1481 1480 1479 1478 1477 1476 1474 1473 1472 1469 1468 1467 1465 1464 1462 1461 1460 1459
1484 1484 1485 1485 1485 1485 1485 1485 1485 1485 1484 1484 1483 1483 1482 1481 1480 1480 1479 1478 1477 1475 1474 1473 1473 1472 1471 1469 1467 1465 1464 1463 1461 1460 1458 1456 1455 1455
1481 1481 1481 1482 1482 1481 1481 1481 1481 1481 1481 1480 1480 1479 1478 1478 1477 1476 1475 1474 1472 1471 1470 1469 1468 1466 1465 1464 1464 1462 1460 1458 1457 1456 1454 1452 1450 1450
1477 1478 1478 1478 1478 1478 1478 1478 1478 1478 1478 1477 1476 1475 1475 1474 1473 1472 1471 1470 1468 1467 1466 1465 1464 1463 1461 1458 1458 1459 1457 1454 1453 1451 1450 1448 1446 1445
1474 1474 1475 1475 1475 1475 1475 1474 1474 1474 1474 1473 1473 1472 1471 1470 1469 1468 1467 1466 1464 1463 1461 1461 1460 1459 1457 1456 1454 1453 1453 1451 1449 1447 1445 1444 1443 1441
1470 1471 1471 1471 1471 1471 1471 1471 1471 1470 1470 1469 1469 1468 1467 1466 1465 1464 1463 1462 1460 1459 1457 1456 1455 1455 1454 1452 1450 1448 1448 1447 1446 1444 1442 1440 1437 1436
1466 1467 1467 1468 1468 1468 1467 1467 1467 1466 1466 1466 1465 1464 1463 1462 1461 1459 1458 1457 1456 1454 1453 1452 1451 1450 1449 1447 1445 1443 1442 1441 1440 1439 1438 1437 1434 1431
1463 1463 1463 1464 1464 1464 1463 1463 1463 1462 1462 1461 1461 1460 1459 1457 1456 1455 1454 1453 1451 1450 1448 1447 1446 1445 1444 1442 1441 1439 1437 1436 1435 1433 1433 1432 1431 1430